Zurück zum Katalog

STARLINK-2674

AktivKommunikationVLEO
NORAD 48354·PAYLOAD·🇺🇸 United States

Gestartet May 4, 2021 von Cape Canaveral Space Force Station

Loading…

Nächste Überflüge (nächste 24 Stunden)

TLE

AktuellSource: CelesTrak SupGP

Epoche: Sep 14, 2026, 20:28 UTC

1 48354C 21038B   26257.85326389  .00019934  00000+0  64102-3 0  2572
2 48354  53.1586 197.8919 0001207  94.0811 313.2373 15.31691994    12

Verfolge STARLINK-2674 in Echtzeit mit AllMySat

Download on the App Store